星链-4158 (STARLINK-4158 )

导读 | 豆包AI

STARLINK-4158是美国太空探索技术公司(SpaceX)“星链”星座的卫星,于2022年7月7日发射入轨,属于星链低轨互联网卫星项目。它承担全球宽带互联网覆盖任务,依托低轨布局传输信号,可服务偏远地区通信,助力搭建全球卫星互联网络。

基本信息
目录编号:
53027
目录名称:
STARLINK-4158
国际标识:
2022-076AT
轨道中心:
EARTH
卫星名称:
星链-4158
卫星全名:
星链-4158 (STARLINK-4158 )
卫星状态:
在轨 (已飞行1393 天)
发射日期:
2022-07-07 UTC
国别 :
美国 (US)
星等 :
--
轨道信息
数据来源 国际轨道数据
星历时间: 2026-04-30T20:17:28+0800
8小时前
查看轨道信息
半长轴: 6917.869km
偏心率: 0.0001502
轨道倾角: 53.219°
近地点辐角 77.887°
升交点赤经 211.481°
平近点角 282.229°
近地点: 538.692km
远地点: 540.772km
周期: 95.437分钟
每日圈数: 15.088439
详细信息
固有亮度:
5
最大亮度:
2.5
卫星平台:
Starlink v1.5
覆盖范围:
全球
运营商:
太空探索技术公司
运营商所在国:
美国
制造商(研发单位):
太空探索技术公司
制造商所在国:
美国
使用方式:
暂无
卫星简介
星链(Starlink)计划是由太空探索技术公司(SpaceX)提出的一个巨型低轨卫星互联网星座项目,计划在2019年至2024年间在太空搭建由约1.2万颗卫星组成的“星链”网络,其中1584颗将部署在地球上空550千米处的近地轨道,并从2020年开始工作。该卫星仍在工作。
2D轨道图
3D轨道图
轨道高度分析图
轨道倾角分析图
轨道综合分析图
查看轨道综合分析图